Flag for Norway Weather past 2 weeks in Ulsteinvik, Norway

Now
59 °F

Sunny.


Feels Like: 58 °F
Forecast: 52 / 64 °F
Wind: 6 mph from North

Location: Orsta-Volda / Hovden

Current Time: Sep 18, 2014 at 2:45:39 PM

Latest Report: Sep 18, 2014 at 12:50 PM


Visibility: 10 mi

Pressure: 30.12 "Hg

Humidity: 72%

Dew point: 50 °F

Location of UlsteinvikLocation

Historic Weather in Ulsteinvik — Graph

°F

Ulsteinvik temperature yesterday

Maximum temperature yesterday: 66 °F (at 3:50 PM)
Minimum temperature yesterday: 41 °F (at 5:50 AM)
Average temperature yesterday: 54 °F

Past Weeks' High & Low Weather Summary

 TemperatureHumidityPressure
High68 °F (Sep 12, 3:50 PM)100% (Sep 8, 8:50 AM)30.48 "Hg (Sep 8, 8:50 AM)
Low39 °F (Sep 18, 6:50 AM)49% (Sep 17, 3:50 PM)29.80 "Hg (Sep 8, 8:50 AM)
Average57 °F79%30.17 "Hg
* Reported Sep 3 12:50 PM — Sep 18 12:50 PM, Ulsteinvik, Weather by CustomWeather, © 2014

Note: Actual official high and low records may vary slightly from our data, if they occured in-between our weather recording intervals... More about our weather records

Advertising

Ulsteinvik weather history for previous 24 hours

 ConditionsComfort  
Time TempWeatherWind HumidityBarometerVisibility
12:50 PM
Sep 18
59 °FSunny.6 mph72%30.12 "Hg10 mi
11:50 AM55 °FSunny.3 mph77%30.12 "Hg10 mi
10:50 AM54 °FSunny.No wind88%30.15 "Hg10 mi
9:50 AM48 °FSunny.No wind100%30.15 "Hg10 mi
8:50 AM41 °FLight fog.1 mph100%30.15 "HgN/A
7:50 AM39 °FLight fog.1 mph100%30.15 "HgN/A
6:50 AM39 °FLight fog.No wind100%30.15 "HgN/A
5:50 AM41 °FLight fog.No wind93%30.15 "HgN/A
10:50 PM
Sep 17
46 °FClear.No wind100%30.21 "Hg10 mi
9:50 PM46 °FClear.No wind100%30.21 "Hg10 mi
8:50 PM50 °FSunny.1 mph88%30.18 "Hg10 mi
7:50 PM54 °FSunny.2 mph88%30.18 "Hg10 mi
6:50 PM61 °FSunny.2 mph68%30.18 "Hg10 mi
5:50 PM64 °FSunny.1 mph56%30.18 "Hg10 mi
4:50 PM66 °FPassing clouds.5 mph49%30.18 "HgN/A
3:50 PM66 °FSunny.5 mph49%30.18 "Hg10 mi
2:50 PM64 °FSunny.5 mph60%30.21 "Hg10 mi
Weather by CustomWeather, © 2014

See weather overviewHow to use our weather pages